User: anonymous   Login
Location: Clinton NY
(43.0598°N, 75.3602°W)
Time: 23:27:31
(UTC-04:00)
Language:

ISS - Orbit

View from above orbital plane
View from above orbital plane
View from above satellite
View from above satellite

Ground track
Ground track

The orbit data is extracted from the following two-line orbital elements,

1 25544U 98067A   15181.01687719  .00006836  00000-0  10532-3 0  9992
2 25544 051.6458 019.9566 0003215 117.9389 041.0521 15.55444404950032
Epoch (UTC): 30 June 2015 00:24:18
Eccentricity: 0.0003215
inclination: 51.6458°
perigee height: 398 km
apogee height: 403 km
right ascension of ascending node: 19.9566°
argument of perigee: 117.9389°
revolutions per day: 15.55444404
mean anomaly at epoch: 41.0521°
orbit number at epoch: 95003

The dashed part of the orbit path shows where the satellite is in the earth's shadow,  

DLR